カタログに戻る

STARLINK-31779

運用中通信VLEO
NORAD 59744·PAYLOAD·🇺🇸 United States

打ち上げ May 13, 2024 から Cape Canaveral Space Force Station

Loading…

次のパス (今後24時間)

TLE

最新Source: CelesTrak SupGP

元期: Sep 15, 2026, 03:19 UTC

1 59744C 24090Q   26258.13868056 -.00021556  00000+0 -78087-3 0  2585
2 59744  42.9997 193.3829 0001122 273.4208 181.3362 15.27584393    10

AllMySatでSTARLINK-31779をリアルタイム追跡

Download on the App Store